[[{"header":{"parameterUnit":"m.s-1","parameterCategory":1,"la1":30.2991,"la2":30.254,"lo1":-89.0895,"lo2":-89.0444,"dy":0.0017,"dx":0.0017,"nx":28,"ny":28,"refTime":"2025-07-17T09:00:00:Z","depth":0,"parameterNumber":2,"parameterNumberName":"U-component_of_WINDS"},"data":[0,0,0,0,0,0,0,0,0,0,0,0,0,0,0,0,0,0,0,0,0,0,0,0,0,0,0,0,0,0,0,0,0,0,0,0,0,0,0,0,0,0,0,0,0,0,0,0,0,0,0,0,0,0,0,0,0,0,-0.662,-0.6623,0,-0.693,-0.6934,-0.6937,-0.7048,-0.7047,-0.7045,-0.7044,-0.7373,-0.7382,-0.7392,0,0,0,0,0,0,0,0,0,0,0,0,0,-0.6133,-0.6141,-0.662,-0.6624,-0.6628,-0.693,-0.6934,-0.6938,-0.7048,-0.7046,-0.7045,-0.7044,-0.737,-0.7381,-0.7393,0,0,0,0,0,0,0,0,0,0,0,0,0,-0.6384,-0.6144,-0.6619,-0.6718,-0.673,-0.6929,-0.6934,-0.694,-0.7048,-0.7046,-0.7045,-0.7043,-0.7366,-0.738,-0.7395,-0.752,0,0,-0.744,-0.7446,0,0,0,0,0,0,0,0,-0.637,-0.6402,-0.67,-0.6712,-0.6726,-0.6948,-0.6883,-0.7135,-0.7049,-0.6928,-0.7044,-0.7042,-0.7234,-0.7259,-0.7322,-0.7536,-0.755,-0.7441,-0.745,-0.7456,-0.746,0,0,0,0,0,0,0,-0.6352,-0.6389,-0.6743,-0.6704,-0.672,-0.6751,-0.6785,-0.6931,-0.7087,-0.6938,-0.6947,-0.6982,-0.7241,-0.7307,-0.733,-0.7555,-0.7441,-0.7454,-0.7463,-0.7468,-0.7891,-0.7893,0,0,0,0,0,0,-0.6317,-0.6374,-0.6733,-0.6752,-0.6539,-0.6761,-0.6799,-0.6879,-0.7086,-0.7115,-0.6983,-0.6986,-0.7283,-0.7313,-0.7342,-0.7505,-0.7456,-0.747,-0.7478,-0.7889,-0.7892,-0.7894,0,0,0,0,0,0,-0.6306,-0.6347,-0.6721,-0.6566,-0.6615,-0.6771,-0.686,-0.6886,-0.6952,-0.7119,-0.7149,-0.7021,-0.7283,-0.7321,-0.7475,-0.7518,-0.7477,-0.749,-0.7886,-0.789,-0.7893,-0.7829,0,0,0,0,0,0,-0.6291,-0.6343,-0.639,-0.6566,-0.6623,-0.6845,-0.6863,-0.6893,-0.6976,-0.6983,-0.7163,-0.7192,-0.7284,-0.7452,-0.749,-0.7537,-0.7501,-0.7883,-0.7887,-0.7892,-0.7828,-0.783,-0.7832,0,0,0,0,0,-0.6273,-0.6361,-0.6391,-0.6434,-0.6684,-0.6847,-0.688,-0.6982,-0.6979,-0.7029,-0.7137,-0.7186,-0.7506,-0.7467,-0.751,-0.7563,-0.7881,-0.7886,-0.7891,-0.7827,-0.783,-0.7832,0,0,0,0,0,0,-0.619,-0.6386,-0.6422,-0.6568,-0.6689,-0.6865,-0.6931,-0.6981,-0.7108,-0.7109,-0.7234,-0.7274,-0.7418,-0.7506,-0.7459,-0.7697,-0.7697,-0.7711,-0.7634,-0.7637,-0.7639,-0.7615,-0.7514,0,0,0,0,0,-0.6187,-0.6299,-0.6467,-0.658,-0.6639,-0.6774,-0.6849,-0.6916,-0.7049,-0.7102,-0.7221,-0.735,-0.748,-0.7564,-0.7693,-0.7841,-0.7884,-0.7899,-0.79,-0.7901,-0.7912,-0.8,-0.8009,-0.7912,-0.7912,-0.7912,0,0,-0.6185,-0.6307,-0.6371,-0.6566,-0.6668,-0.6785,-0.6817,-0.6939,-0.7028,-0.7122,-0.7273,-0.7365,-0.7518,-0.767,-0.7743,-0.7748,-0.7949,-0.7908,-0.7907,-0.7919,-0.8007,-0.8016,-0.8024,-0.7915,-0.7915,-0.7914,0,0,-0.6242,-0.6343,-0.645,-0.6551,-0.6704,-0.6793,-0.6818,-0.6987,-0.705,-0.7204,-0.7277,-0.7387,-0.7608,-0.7714,-0.7797,-0.7894,-0.7946,-0.7933,-0.7943,-0.8027,-0.8035,-0.8042,-0.8079,-0.809,-0.7944,-0.7944,-0.7944,0,-0.6221,-0.6396,-0.6499,-0.6617,-0.6703,-0.6789,-0.69,-0.6994,-0.7183,-0.7241,-0.7243,-0.7523,-0.7632,-0.7811,-0.7834,-0.7898,-0.7934,-0.7914,-0.8024,-0.8033,-0.8042,-0.8078,-0.8091,-0.7941,-0.7942,-0.7942,-0.7942,0,-0.6364,-0.6485,-0.6553,-0.6729,-0.6823,-0.6936,-0.706,-0.7143,-0.7202,-0.7292,-0.745,-0.7583,-0.7741,-0.7789,-0.785,-0.7978,-0.7976,-0.7999,-0.8003,-0.8047,-0.8083,-0.8098,-0.7938,-0.7939,-0.7939,-0.794,0,0,-0.6377,-0.6607,-0.6631,-0.6713,-0.6888,-0.6986,-0.7105,-0.7256,-0.7326,-0.7453,-0.7559,-0.7744,-0.7767,-0.7861,-0.7935,-0.8008,-0.8079,-0.8024,-0.8029,-0.803,-0.8231,-0.8213,-0.8227,-0.8113,-0.8116,-0.8119,-0.8219,0,-0.6457,-0.6669,-0.6766,-0.6937,-0.7052,-0.7136,-0.7241,-0.7362,-0.7449,-0.7563,-0.7662,-0.7791,-0.7811,-0.7868,-0.7945,-0.8054,-0.8121,-0.8048,-0.8216,-0.8221,-0.8175,-0.8246,-0.8227,-0.8314,-0.8233,-0.8236,-0.8238,0,-0.6579,-0.6703,-0.6884,-0.7047,-0.7099,-0.719,-0.7338,-0.7443,-0.7584,-0.7643,-0.7747,-0.7818,-0.7951,-0.7944,-0.813,-0.8078,-0.8153,-0.8217,-0.8223,-0.8244,-0.8232,-0.827,-0.8345,-0.8358,-0.8261,-0.8259,-0.8257,0,-0.6571,-0.6784,-0.6921,-0.6988,-0.7181,-0.7243,-0.7327,-0.7465,-0.7551,-0.7681,-0.7738,-0.7883,-0.7963,-0.8075,-0.8185,-0.8169,-0.8362,-0.8363,-0.8418,-0.8415,-0.8455,-0.8451,-0.8544,-0.8501,-0.8501,-0.85,-0.85,0,-0.6651,-0.6759,-0.692,-0.7004,-0.7128,-0.724,-0.7362,-0.7453,-0.7575,-0.7681,-0.7764,-0.7863,-0.8,-0.8118,-0.8205,-0.8347,-0.8383,-0.8437,-0.8459,-0.843,-0.8423,-0.8482,-0.8479,-0.8504,-0.8503,-0.8503,-0.8502,0,-0.6664,-0.6775,-0.693,-0.7099,-0.7144,-0.7229,-0.7376,-0.7463,-0.7554,-0.7688,-0.7726,-0.7871,-0.8014,-0.8133,-0.8322,-0.838,-0.8528,-0.8554,-0.8479,-0.8491,-0.854,-0.8534,-0.8674,-0.8699,-0.8637,-0.8637,-0.8638,0,-0.6708,-0.6793,-0.697,-0.7045,-0.7127,-0.7247,-0.7334,-0.7448,-0.7536,-0.7703,-0.777,-0.7917,-0.8041,-0.8266,-0.8391,-0.8536,-0.8567,-0.8606,-0.8589,-0.8558,-0.8569,-0.8563,-0.8573,-0.8607,-0.8607,-0.8607,-0.8607,0,-0.6775,-0.6826,-0.6946,-0.7085,-0.7185,-0.7302,-0.7421,-0.7479,-0.7616,-0.7711,-0.7855,-0.7951,-0.8142,-0.8289,-0.8447,-0.8538,-0.8597,-0.8611,-0.8632,-0.8604,-0.8557,-0.8585,-0.8484,-0.8608,-0.8608,-0.8608,-0.8608,-0.8608,-0.6807,-0.6886,-0.7023,-0.7155,-0.7255,-0.7365,-0.7454,-0.7557,-0.7678,-0.7839,-0.7901,-0.8049,-0.8191,-0.8409,-0.85,-0.8621,-0.8629,-0.8658,-0.8666,-0.8672,-0.8668,-0.8537,-0.865,-0.865,-0.8651,-0.8651,-0.8651,0,-0.6879,-0.6971,-0.709,-0.7253,-0.7357,-0.7399,-0.7533,-0.7619,-0.7747,-0.7872,-0.7991,-0.8159,-0.8301,-0.8437,-0.8588,-0.8658,-0.8689,-0.8694,-0.8691,-0.8712,-0.8652,-0.8619,-0.8667,-0.8667,-0.8667,-0.8667,-0.8667,-0.8667,-0.6929,-0.7066,-0.7133,-0.7323,-0.7416,-0.7558,-0.7632,-0.7734,-0.7835,-0.8016,-0.8134,-0.822,-0.8351,-0.8512,-0.8646,-0.8683,-0.8735,-0.8733,-0.8777,-0.8719,-0.8716,-0.8713,-0.8683,-0.8743,-0.8743,-0.8828,-0.8829,-0.8829]},{"header":{"parameterUnit":"m.s-1","parameterCategory":1,"la1":30.2991,"la2":30.254,"lo1":-89.0895,"lo2":-89.0444,"dy":0.0017,"dx":0.0017,"nx":28,"ny":28,"refTime":"2025-07-17T09:00:00:Z","depth":0,"parameterNumber":3,"parameterNumberName":"V-component_of_WINDS"},"data":[0,0,0,0,0,0,0,0,0,0,0,0,0,0,0,0,0,0,0,0,0,0,0,0,0,0,0,0,0,0,0,0,0,0,0,0,0,0,0,0,0,0,0,0,0,0,0,0,0,0,0,0,0,0,0,0,0,0,-4.4863,-4.4864,0,-4.4916,-4.4916,-4.4917,-4.4853,-4.485,-4.4848,-4.4846,-4.4894,-4.4897,-4.4901,0,0,0,0,0,0,0,0,0,0,0,0,0,-4.4701,-4.4705,-4.4863,-4.4864,-4.4864,-4.4915,-4.4916,-4.4917,-4.4853,-4.485,-4.4847,-4.4845,-4.4893,-4.4897,-4.4901,0,0,0,0,0,0,0,0,0,0,0,0,0,-4.4764,-4.4706,-4.4863,-4.4839,-4.4837,-4.4915,-4.4916,-4.4917,-4.4854,-4.485,-4.4847,-4.4843,-4.4891,-4.4896,-4.4902,-4.5004,0,0,-4.4917,-4.492,0,0,0,0,0,0,0,0,-4.4761,-4.477,-4.4842,-4.4841,-4.4839,-4.4874,-4.4877,-4.4946,-4.4855,-4.4847,-4.4846,-4.4842,-4.489,-4.4895,-4.4912,-4.5006,-4.5008,-4.4918,-4.4921,-4.4923,-4.4925,0,0,0,0,0,0,0,-4.4757,-4.4768,-4.4884,-4.4843,-4.4841,-4.4823,-4.4828,-4.489,-4.4887,-4.4848,-4.4843,-4.4851,-4.4888,-4.4907,-4.4913,-4.5009,-4.4918,-4.4922,-4.4926,-4.4928,-4.5189,-4.5193,0,0,0,0,0,0,-4.4756,-4.4765,-4.4882,-4.4885,-4.4791,-4.4829,-4.4835,-4.4866,-4.4887,-4.4886,-4.4853,-4.4847,-4.49,-4.4907,-4.4914,-4.5036,-4.4923,-4.4928,-4.4931,-4.5185,-4.519,-4.5194,0,0,0,0,0,0,-4.4753,-4.4767,-4.488,-4.4824,-4.4837,-4.4836,-4.4871,-4.4869,-4.4888,-4.4891,-4.489,-4.4874,-4.4898,-4.4907,-4.4982,-4.5036,-4.493,-4.4935,-4.5181,-4.5187,-4.5192,-4.5279,0,0,0,0,0,0,-4.4748,-4.4766,-4.4807,-4.4825,-4.484,-4.4949,-4.4875,-4.4873,-4.4898,-4.4891,-4.491,-4.491,-4.4896,-4.4975,-4.4988,-4.5042,-4.4939,-4.5176,-4.5183,-4.519,-4.5271,-4.5287,-4.5301,0,0,0,0,0,-4.4743,-4.4828,-4.4809,-4.4824,-4.4891,-4.4952,-4.4961,-4.4945,-4.4903,-4.4942,-4.4944,-4.4909,-4.5028,-4.4983,-4.4997,-4.5053,-4.5172,-4.5181,-4.5189,-4.5265,-4.5284,-4.53,0,0,0,0,0,0,-4.4814,-4.483,-4.4809,-4.4903,-4.4927,-4.4942,-4.4991,-4.4965,-4.5,-4.4991,-4.4968,-4.4973,-4.5053,-4.506,-4.501,-4.5153,-4.5093,-4.5105,-4.5146,-4.5164,-4.5178,-4.5175,-4.4944,0,0,0,0,0,-4.4841,-4.4892,-4.4902,-4.4984,-4.4997,-4.4993,-4.5019,-4.5004,-4.5027,-4.5036,-4.5043,-4.5066,-4.5108,-4.5136,-4.5175,-4.5272,-4.5275,-4.5317,-4.5332,-4.5344,-4.5354,-4.5405,-4.5424,-4.5222,-4.5222,-4.5222,0,0,-4.4896,-4.4912,-4.4945,-4.4999,-4.5015,-4.5067,-4.5001,-4.5058,-4.5095,-4.5044,-4.5117,-4.5123,-4.5145,-4.5232,-4.527,-4.524,-4.541,-4.5355,-4.5364,-4.5368,-4.5416,-4.5435,-4.5452,-4.5228,-4.5227,-4.5226,0,0,-4.5024,-4.5041,-4.5111,-4.513,-4.5157,-4.5153,-4.517,-4.5188,-4.5191,-4.5264,-4.5226,-4.5269,-4.5342,-4.536,-4.5379,-4.5513,-4.5482,-4.5526,-4.5603,-4.5653,-4.5668,-4.5682,-4.573,-4.5747,-4.5537,-4.5537,-4.5537,0,-4.5089,-4.5167,-4.515,-4.521,-4.5235,-4.5192,-4.5262,-4.528,-4.5318,-4.5335,-4.5301,-4.5393,-4.5405,-4.5495,-4.5528,-4.5544,-4.5562,-4.5524,-4.5668,-4.5682,-4.5694,-4.574,-4.5758,-4.5542,-4.5541,-4.5541,-4.554,0,-4.5246,-4.53,-4.5353,-4.5393,-4.5423,-4.5488,-4.5478,-4.551,-4.5493,-4.5492,-4.5566,-4.5579,-4.562,-4.564,-4.5623,-4.5728,-4.5709,-4.5672,-4.5611,-4.5719,-4.5761,-4.5778,-4.555,-4.5548,-4.5546,-4.5545,0,0,-4.542,-4.545,-4.547,-4.5487,-4.5514,-4.5554,-4.5616,-4.5658,-4.5686,-4.5713,-4.5763,-4.5826,-4.5793,-4.5814,-4.5798,-4.5842,-4.5947,-4.58,-4.58,-4.5827,-4.6063,-4.609,-4.6111,-4.5927,-4.593,-4.5932,-4.6061,0,-4.5548,-4.5658,-4.5644,-4.5749,-4.5798,-4.5758,-4.5812,-4.5833,-4.5833,-4.5874,-4.5873,-4.5919,-4.5871,-4.5883,-4.5925,-4.5926,-4.5994,-4.5916,-4.5972,-4.5974,-4.5968,-4.6133,-4.6162,-4.6283,-4.6077,-4.608,-4.6082,0,-4.5713,-4.5748,-4.5858,-4.5877,-4.5897,-4.5946,-4.5983,-4.6022,-4.6044,-4.6041,-4.6066,-4.6042,-4.6102,-4.604,-4.6122,-4.6069,-4.6091,-4.6094,-4.6099,-4.6103,-4.6035,-4.6142,-4.6321,-4.6339,-4.6107,-4.6105,-4.6104,0,-4.5829,-4.5904,-4.5979,-4.5995,-4.6019,-4.6054,-4.6065,-4.6084,-4.611,-4.6141,-4.6158,-4.6195,-4.6216,-4.6245,-4.6231,-4.6187,-4.6315,-4.6252,-4.6313,-4.6314,-4.6342,-4.634,-4.6527,-4.6356,-4.6356,-4.6355,-4.6355,0,-4.5974,-4.6043,-4.6032,-4.6078,-4.6153,-4.6136,-4.621,-4.6216,-4.6233,-4.6278,-4.6245,-4.6288,-4.6267,-4.6308,-4.6297,-4.6366,-4.6376,-4.6374,-4.637,-4.6377,-4.6378,-4.6391,-4.6383,-4.636,-4.6359,-4.6358,-4.6357,0,-4.6117,-4.6113,-4.6192,-4.6208,-4.6214,-4.6269,-4.6282,-4.6324,-4.6322,-4.638,-4.6392,-4.6388,-4.6435,-4.6424,-4.6474,-4.6467,-4.6554,-4.6539,-4.6547,-4.6544,-4.6606,-4.66,-4.6808,-4.6834,-4.6646,-4.6648,-4.6649,0,-4.621,-4.6262,-4.6285,-4.6314,-4.6328,-4.6375,-4.6402,-4.6386,-4.6414,-4.6444,-4.6482,-4.6526,-4.656,-4.6636,-4.6636,-4.6674,-4.6661,-4.6731,-4.6666,-4.6671,-4.6662,-4.6659,-4.6664,-4.6744,-4.6746,-4.6748,-4.6749,0,-4.6375,-4.637,-4.6412,-4.6452,-4.6486,-4.6516,-4.6543,-4.6568,-4.6554,-4.6588,-4.6636,-4.6663,-4.6715,-4.6758,-4.6793,-4.6802,-4.6773,-4.677,-4.6786,-4.6793,-4.6796,-4.6795,-4.6583,-4.6765,-4.6763,-4.6762,-4.6761,-4.6761,-4.6496,-4.654,-4.6564,-4.661,-4.6629,-4.6655,-4.6696,-4.67,-4.674,-4.6783,-4.677,-4.6825,-4.6844,-4.6888,-4.6902,-4.6943,-4.6916,-4.694,-4.6945,-4.6952,-4.6959,-4.6789,-4.6949,-4.6948,-4.6948,-4.6948,-4.6947,0,-4.6659,-4.6673,-4.6716,-4.6756,-4.6792,-4.6764,-4.6792,-4.6824,-4.6873,-4.6894,-4.6929,-4.6984,-4.7026,-4.703,-4.7069,-4.7101,-4.7089,-4.7112,-4.7109,-4.7112,-4.6981,-4.6963,-4.7121,-4.7121,-4.7121,-4.7121,-4.7121,-4.7121,-4.6749,-4.6823,-4.6821,-4.6903,-4.6915,-4.697,-4.6989,-4.7012,-4.7029,-4.7093,-4.7128,-4.7131,-4.7145,-4.7185,-4.7221,-4.7221,-4.7237,-4.7265,-4.726,-4.7138,-4.7121,-4.7104,-4.7088,-4.7269,-4.7269,-4.7387,-4.7389,-4.7389]}]]